Terminal Aerodrome Forecast
Issued by NWS

Home | Current Version | Previous Version | Text Only | Print | Product List | Glossary On
Versions: 1 2 3 4 5 6 7 8 9 10 11 12 13 14 15 16 17 18 19 20 21 22 23 24 25 26 27
000
FTUS43 KDLH 272231 AAA
TAFHYR
TAF AMD
KHYR 272231Z 2723/2818 03004KT P6SM -SHRA SCT035 OVC050
      TEMPO 2723/2724 2SM RA BR
     FM280300 03003KT 4SM -SHRA OVC007
     FM280600 00000KT 1 1/2SM BR VCSH OVC004
     FM280900 00000KT 1/2SM FG OVC001
     FM281600 VRB02KT 4SM BR OVC007=

USA.gov is the U.S. government's official web portal to all federal, state and local government web resources and services.